Zurück zum Katalog

STARLINK-31294

AktivKommunikationVLEO
NORAD 58949·PAYLOAD·🇺🇸 United States

Gestartet Feb 10, 2024 von Vandenberg Space Force Base

Loading…

Nächste Überflüge (nächste 24 Stunden)

TLE

AktuellSource: CelesTrak SupGP

Epoche: Sep 14, 2026, 22:47 UTC

1 58949C 24027U   26257.94979167 -.00074633  00000+0 -22048-2 0  2573
2 58949  53.1578 149.8701 0001399  86.4935 292.5667 15.34431794    12

Verfolge STARLINK-31294 in Echtzeit mit AllMySat

Download on the App Store